Regional Weather Roundup
Issued by NWS

Home | Current Version | Previous Version | Text Only | Print | Product List | Glossary On
Versions: 1 2 3 4 5 6 7 8 9 10 11 12 13 14 15 16 17 18 19 20 21 22 23 24 25 26 27
000
ASUS46 KPQR 230610
RWROR

OREGON REGIONAL WEATHER ROUNDUP
NATIONAL WEATHER SERVICE PORTLAND OR
1100 PM PDT TUE APR 22 2014

NOTE: "FAIR" INDICATES FEW OR NO CLOUDS BELOW 12,000 FEET WITH
NO SIGNIFICANT WEATHER AND/OR OBSTRUCTIONS TO VISIBILITY.

ORZ001>013-230700-
NORTHWEST OREGON


CITY           SKY/WX    TMP DP  RH WIND       PRES   REMARKS
ASTORIA        CLOUDY    48  44  86 S7        29.88F
6HR MIN TEMP:  46; 6HR MAX TEMP:  49; 6HR PCP:  0.64;

NEWPORT        CLOUDY    46  45  93 SW14      30.01S
PORTLAND       LGT RAIN  47  44  90 S12       29.95F
6HR MIN TEMP:  47; 6HR MAX TEMP:  52; 6HR PCP:  0.12;

VANCOUVER WA   LGT RAIN  48  43  82 S8        29.95F
6HR MIN TEMP:  47; 6HR MAX TEMP:  52; 6HR PCP:  0.17;

SCAPPOOSE      CLOUDY    47  44  90 S7        29.93S
6HR MIN TEMP:  46; 6HR MAX TEMP:  53; 6HR PCP:  0.03;

HILLSBORO      LGT RAIN  46  43  89 S7        29.94S
6HR MIN TEMP:  46; 6HR MAX TEMP:  53; 6HR PCP:  0.10;

AURORA         LGT RAIN  46  45  96 S14G21    29.97S
6HR MIN TEMP:  46; 6HR MAX TEMP:  53; 6HR PCP:  0.15;

MCMINNVILLE    LGT RAIN  47  45  93 S12       29.97S
6HR MIN TEMP:  47; 6HR MAX TEMP:  55; 6HR PCP:  0.08;

SALEM          CLOUDY    47  42  83 S13       29.97F
6HR MIN TEMP:  47; 6HR MAX TEMP:  55; 6HR PCP:  0.08;

CORVALLIS      CLOUDY    46  43  87 S13       30.01S
EUGENE         CLOUDY    45  41  86 S10       30.03S
6HR MIN TEMP:  45; 6HR MAX TEMP:  55; 6HR PCP:  0.01;

$$

ORZ021-028-230700-
SOUTHWEST OREGON


CITY           SKY/WX    TMP DP  RH WIND       PRES   REMARKS
NORTH BEND     CLOUDY    46  46 100 S9        30.06F
6HR MIN TEMP:  46; 6HR MAX TEMP:  54; 6HR PCP:  0.09;

BROOKINGS      CLOUDY    47  45  93 S12G18    30.12S
ROSEBURG       LGT RAIN  49  38  65 CALM      30.06S
6HR MIN TEMP:  48; 6HR MAX TEMP:  56; 6HR PCP:  0.01;

SEXTON SUMMIT  CLOUDY    32  31  96 S14       30.00F WCI  22
6HR MIN TEMP:  32; 6HR MAX TEMP:  42;

MEDFORD        CLOUDY    48  34  58 N5        30.07R
6HR MIN TEMP:  48; 6HR MAX TEMP:  57;

$$

ORZ009-041-230700-
COLUMBIA GORGE


CITY           SKY/WX    TMP DP  RH WIND       PRES   REMARKS
TROUTDALE      LGT RAIN  48  43  82 S9        29.94F
6HR MIN TEMP:  47; 6HR MAX TEMP:  51; 6HR PCP:  0.14;

THE DALLES     MOCLDY    43  38  82 CALM      29.94S
6HR MIN TEMP:  43; 6HR MAX TEMP:  54;

$$

ORZ029>031-042>050-061>064-230700-
EASTERN OREGON


CITY           SKY/WX    TMP DP  RH WIND       PRES   REMARKS
REDMOND        MOCLDY    37  27  67 S7        29.94S WCI  32
6HR MIN TEMP:  36; 6HR MAX TEMP:  48;

BEND           MOCLDY    39  27  60 SW15G21   29.95S WCI  31
KLAMATH FALLS  MOCLDY    36  28  73 W5        30.02S WCI  32
6HR MIN TEMP:  36; 6HR MAX TEMP:  44; 6HR PCP:  0.01;

LAKEVIEW       MOCLDY    34  25  69 SW3       30.01R
HERMISTON      PTCLDY    44  35  70 SW8       29.93R
6HR MIN TEMP:  42; 6HR MAX TEMP:  60;

PENDLETON      PTCLDY    40  32  73 S5        29.92S
6HR MIN TEMP:  40; 6HR MAX TEMP:  56;

JOHN DAY       CLEAR     37  25  60 CALM      29.93S
MEACHAM        CLOUDY    32  28  85 CALM      29.90S
6HR MIN TEMP:  32; 6HR MAX TEMP:  47;

LA GRANDE      CLEAR     34  23  64 CALM      29.91S
6HR MIN TEMP:  34; 6HR MAX TEMP:  52;

BAKER CITY     PTCLDY    29  23  78 VRB3      29.92R
6HR MIN TEMP:  29; 6HR MAX TEMP:  48;

BURNS          PTCLDY    30  22  72 S5        29.96R WCI  25
6HR MIN TEMP:  29; 6HR MAX TEMP:  50; 6HR PCP: TRACE;

ROME             N/A     36  17  46 NW7       29.95R WCI  30
6HR MIN TEMP:  35; 6HR MAX TEMP:  51;

ONTARIO        LGT RAIN  38  28  67 W5        29.95R WCI  34
6HR MIN TEMP:  38; 6HR MAX TEMP:  56; 6HR PCP: TRACE;

$$



USA.gov is the U.S. government's official web portal to all federal, state and local government web resources and services.